RH
11 11 11 11 12 15 17 17 16 15 17 19 16 14 14 14 14 14 13 12 16 17 17 19 19 21 24 32 35 36 39 38 39 42 47 49 45 42 40 40 36 33 32 29 25 26 27 25 25 26 27 29 30 31 31 32 32 33 33 33 32 30 28 26 22 22 23 23 24 24 26 27 30 33 35 38 39 38 36 36 37 36 36 39 40 40 37 33 34 36 36 38 38 37 37 37 37
10 11 11 11 13 15 17 19 17 14 14 16 15 14 14 13 14 13 13 14 21 23 21 22 21 22 22 29 35 35 37 36 36 37 41 42 41 40 38 38 35 34 33 29 26 26 27 26 25 26 27 29 31 32 32 32 32 32 33 33 33 31 28 26 23 22 23 24 24 24 25 26 29 32 34 38 40 39 37 37 38 36 36 38 40 41 40 35 33 35 36 37 37 35 34 32 32
9 12 13 12 13 13 14 17 15 12 11 12 12 12 12 13 12 13 15 17 23 22 20 22 26 26 23 32 39 37 37 35 32 34 35 35 37 38 35 34 33 34 33 30 30 28 27 27 26 26 28 30 31 33 33 33 33 33 33 33 33 31 28 26 23 22 24 24 24 24 25 26 28 31 34 38 40 40 38 38 38 36 35 37 39 40 40 38 34 34 36 35 34 31 30 29 27
8 11 13 11 13 14 13 13 12 11 10 10 9 10 12 12 12 13 15 18 19 17 18 26 32 30 29 37 41 38 38 35 33 34 33 32 35 34 32 34 34 35 33 33 35 29 26 27 27 27 29 31 32 34 34 34 34 33 34 33 33 31 28 26 23 22 24 24 25 25 25 25 27 30 34 38 40 42 40 38 38 37 36 36 39 39 38 39 36 34 35 32 28 25 23 22 20
7 9 11 9 12 16 14 12 10 10 9 8 8 11 12 12 14 15 15 15 15 16 19 26 32 34 36 38 40 38 36 37 36 35 34 33 32 32 33 35 34 35 35 35 35 30 27 28 28 28 30 31 33 35 35 35 35 34 34 33 32 30 28 26 23 23 24 25 25 26 26 26 28 29 33 37 40 42 40 38 37 39 38 38 39 39 36 37 37 33 32 30 26 22 18 16 14
7 9 9 7 9 13 13 13 11 10 9 7 8 10 12 13 15 15 15 15 16 18 19 24 31 37 40 37 37 38 36 38 36 33 35 34 32 32 34 35 34 35 36 35 35 32 29 29 29 28 29 32 35 36 36 36 36 35 34 33 31 29 28 26 23 24 25 25 26 27 27 26 28 29 32 35 38 40 41 38 38 40 40 39 38 35 32 32 34 31 29 28 26 24 19 16 15
8 9 10 8 8 9 10 11 10 10 10 8 8 10 14 15 14 14 14 16 18 19 19 26 30 33 38 35 33 35 34 35 32 32 36 35 34 34 36 37 36 35 35 35 36 34 31 30 29 27 28 30 34 36 36 36 35 34 33 32 29 28 27 25 24 25 25 26 27 28 28 28 29 30 31 33 35 38 41 40 39 40 40 39 35 31 29 27 30 30 27 27 28 27 23 19 17
8 10 14 12 10 9 9 8 7 8 10 10 9 11 15 15 13 12 13 15 19 20 20 23 28 35 39 35 35 35 33 33 31 32 33 33 35 36 38 39 36 34 35 36 36 35 32 30 28 26 26 30 33 35 34 33 32 31 30 30 29 28 27 25 25 26 26 27 28 29 30 30 29 29 29 31 34 36 39 42 41 41 39 38 33 28 27 26 29 30 28 28 29 29 26 22 18
7 11 15 14 13 13 11 9 8 7 8 10 10 10 12 13 12 11 12 15 19 23 22 20 28 39 40 37 39 37 34 33 32 32 31 33 36 37 36 37 37 36 36 36 36 34 32 30 27 25 26 29 32 33 32 30 30 29 29 30 30 29 26 25 26 27 27 28 29 30 31 31 30 29 28 29 33 36 39 43 42 41 39 37 31 26 27 27 28 31 30 29 30 30 29 26 22
8 11 13 13 12 12 12 11 11 8 7 11 13 10 9 10 10 10 10 13 19 23 24 22 26 37 42 41 40 38 35 32 31 32 31 34 37 36 35 36 38 38 37 37 37 34 32 31 26 25 26 28 31 31 31 30 30 30 31 32 31 29 27 27 28 28 29 29 30 31 32 32 31 30 29 29 32 36 39 42 42 41 40 37 31 26 27 27 28 31 30 30 30 30 31 29 26
11 10 10 10 10 11 10 10 12 10 8 13 13 9 10 9 9 9 9 13 15 20 27 21 22 37 46 45 42 39 36 31 32 32 31 35 36 38 38 37 39 40 38 38 40 36 34 33 28 27 28 29 31 31 31 31 31 31 31 32 31 29 28 28 29 30 31 31 31 32 33 33 32 31 30 30 32 36 40 42 42 42 41 38 33 28 27 27 28 30 29 31 32 31 31 31 30
11 11 11 8 10 13 10 9 12 12 12 13 10 8 10 9 10 9 10 13 12 22 28 18 24 41 46 45 41 38 34 32 33 33 33 36 38 40 40 39 40 39 39 42 41 39 37 36 33 31 31 32 32 32 32 32 32 31 31 32 32 31 30 30 31 32 32 33 33 33 34 34 33 32 31 30 32 37 41 41 42 43 42 40 35 30 28 27 28 30 30 32 33 33 32 33 32
11 12 14 11 9 11 10 10 12 13 13 13 10 9 10 9 9 8 11 13 13 24 25 20 33 42 45 46 41 37 35 33 34 33 33 37 40 42 42 42 42 40 42 44 42 41 41 40 38 35 34 34 34 33 33 33 34 34 34 34 34 33 32 33 34 34 35 36 36 35 35 35 34 33 32 32 33 37 41 40 41 43 43 42 38 33 30 29 28 30 31 32 33 33 34 34 34
10 12 16 16 12 9 8 9 13 14 13 12 10 10 10 9 9 9 11 12 16 26 26 29 38 39 44 47 42 39 34 34 35 34 34 36 40 42 42 42 43 44 45 48 48 47 45 39 38 38 37 36 36 37 36 36 36 36 36 36 36 36 36 36 36 38 38 39 39 38 36 36 36 35 34 33 34 36 40 40 40 42 44 45 41 35 32 30 29 29 32 33 33 33 34 35 35
10 12 15 16 15 12 9 8 12 13 12 12 11 11 9 9 10 10 10 14 23 27 29 32 34 37 44 44 41 38 35 35 34 34 36 37 40 42 43 44 45 50 55 63 63 57 47 39 40 41 39 39 40 42 41 41 40 39 39 39 40 39 39 39 39 42 43 44 43 40 39 39 38 36 35 35 35 36 39 40 40 40 42 45 43 38 34 33 31 29 31 34 34 33 34 35 36
10 13 14 14 14 13 10 9 10 9 12 13 11 10 10 10 9 13 15 23 31 28 31 33 33 40 44 45 42 37 37 37 34 35 36 36 38 40 44 47 51 59 67 73 72 66 57 51 53 51 47 47 47 47 47 46 46 46 45 45 45 45 46 45 45 47 48 50 48 43 42 43 42 39 37 36 35 36 38 40 40 39 39 43 45 40 37 36 34 30 30 35 36 33 33 35 36
11 12 13 13 11 11 11 11 9 9 13 15 13 10 13 11 8 19 26 32 38 33 38 42 40 41 44 48 48 43 40 39 36 34 32 31 34 36 42 49 59 69 69 72 76 71 67 66 63 60 58 56 51 49 49 50 51 52 52 52 52 52 53 52 53 54 55 56 53 49 49 52 50 45 41 38 37 38 39 40 41 40 38 41 45 43 39 38 37 34 31 35 37 33 33 35 36
11 10 11 13 10 11 13 13 10 11 15 16 14 12 15 13 13 27 33 36 41 40 45 50 47 44 45 49 50 46 41 39 35 30 29 29 29 33 40 50 66 75 70 73 79 73 69 69 65 62 63 62 58 55 53 52 54 56 57 59 60 60 60 59 60 63 66 65 61 61 63 64 63 58 51 45 42 41 41 42 42 43 39 38 44 45 42 41 40 37 35 37 37 35 35 36 36
12 10 10 12 11 13 15 14 13 12 14 16 15 15 18 17 19 27 32 36 39 41 45 50 49 43 45 47 43 41 38 37 32 28 28 25 27 33 40 51 64 75 75 76 77 71 67 64 63 63 64 64 62 63 61 57 56 58 59 63 67 68 66 63 65 70 72 71 69 69 70 72 76 75 67 61 55 50 49 46 41 43 41 37 42 46 44 43 43 40 37 38 39 38 39 40 38
11 10 10 12 12 15 15 15 15 13 14 16 15 18 22 21 21 21 29 38 35 38 43 45 45 39 41 42 36 37 36 33 29 27 27 23 28 37 43 50 60 70 73 71 66 65 63 61 62 63 63 62 60 62 65 63 60 62 63 65 70 73 69 64 65 69 71 72 72 72 72 74 77 77 75 74 70 64 61 54 45 42 42 39 39 44 46 45 46 45 41 39 41 42 46 50 43
11 10 11 12 12 14 15 14 14 13 14 15 15 18 23 24 21 17 29 40 35 36 41 42 41 34 37 38 36 38 33 30 28 26 26 25 30 38 42 45 53 59 61 61 59 62 65 65 64 60 60 60 61 63 66 67 65 67 70 70 74 76 72 66 66 69 72 76 78 76 73 72 72 73 73 75 77 73 68 63 54 45 42 41 38 42 47 48 48 47 45 44 46 49 54 61 53
13 10 11 13 13 13 14 14 14 14 13 13 13 15 23 27 22 20 28 37 37 35 40 46 43 35 35 37 38 37 31 28 26 26 29 32 35 38 38 38 43 48 52 57 60 63 65 65 63 59 60 61 64 66 67 69 69 71 75 78 81 80 74 71 72 74 77 79 80 78 75 73 74 75 74 74 76 76 73 70 65 55 46 41 40 44 48 49 49 49 49 49 53 55 56 63 61
14 10 12 14 14 14 13 15 16 14 12 12 12 12 23 29 23 25 27 32 38 37 39 47 46 39 37 37 40 39 33 30 28 30 34 36 36 38 39 37 41 48 52 54 56 59 60 61 59 57 60 62 64 66 68 70 71 72 74 79 83 80 76 74 74 75 76 77 78 78 77 76 76 75 73 74 76 77 77 76 74 68 55 44 44 51 55 54 52 51 51 52 56 57 55 62 66
14 12 14 16 15 14 14 17 17 13 11 11 11 11 20 24 21 26 27 30 37 36 40 48 48 45 40 38 42 43 39 36 34 36 37 36 38 43 45 41 43 49 49 50 54 57 57 57 56 56 59 62 63 65 65 67 70 72 71 74 77 76 75 73 72 72 73 76 76 76 76 75 74 73 71 74 78 78 79 79 78 76 69 58 52 58 64 61 57 54 52 56 60 58 56 62 68
13 12 16 16 15 14 15 20 18 13 10 10 10 10 13 15 19 25 25 30 35 36 42 47 47 48 44 40 39 40 42 41 39 38 37 38 43 46 46 45 44 46 48 51 55 57 56 57 57 56 57 59 61 60 60 63 69 72 70 69 70 72 72 71 72 71 72 75 75 76 76 76 74 70 68 71 75 75 76 79 78 77 78 73 64 62 67 66 65 64 58 60 64 62 62 65 68
13 12 15 16 14 13 15 19 17 12 10 9 8 8 10 12 19 24 24 27 35 41 44 44 46 47 47 43 38 39 43 43 41 40 40 44 48 46 46 48 45 46 50 52 56 58 57 58 57 56 57 58 59 58 58 61 65 67 67 65 65 66 65 66 70 72 74 76 75 75 75 73 69 64 63 65 68 70 71 74 76 78 79 79 76 70 67 66 68 70 67 67 67 66 68 70 70
15 14 14 15 15 14 14 17 16 11 11 10 8 9 11 12 18 22 23 26 33 42 44 43 46 48 50 48 44 46 47 46 44 43 44 49 50 48 48 49 46 47 49 51 55 56 56 58 59 59 58 56 57 57 57 59 60 61 62 60 60 61 60 64 70 73 75 76 73 70 68 66 63 60 59 58 60 63 67 72 76 81 81 80 82 80 72 66 66 68 69 69 69 70 70 71 74
18 17 14 14 15 14 14 15 13 11 11 11 9 11 13 12 16 19 22 25 27 39 46 43 43 46 50 51 51 53 52 50 47 44 45 49 49 47 47 47 46 47 49 51 52 54 57 57 56 55 52 51 53 54 56 59 59 59 58 57 58 59 61 67 72 72 71 70 67 64 61 60 58 57 55 54 55 55 61 71 77 82 85 83 83 86 80 68 66 68 67 66 66 69 70 71 75
18 17 15 14 14 14 14 14 14 13 12 11 11 13 13 11 13 17 23 25 24 36 43 42 45 49 49 51 53 55 56 55 49 45 45 46 47 46 46 45 46 47 48 49 50 53 53 50 48 47 46 48 50 52 55 58 57 56 57 57 59 58 58 62 67 69 68 64 61 58 56 56 55 55 55 55 56 55 56 63 74 83 85 83 80 83 82 70 65 64 63 64 63 64 69 73 76
18 17 16 14 13 14 15 14 15 15 13 12 11 13 14 10 14 21 26 26 27 33 35 37 47 50 51 54 57 59 58 57 51 46 45 45 46 46 46 47 46 47 47 49 50 49 47 44 44 45 45 46 46 48 51 52 54 54 54 55 57 57 56 58 63 67 67 64 61 57 57 58 59 58 59 60 59 58 57 57 66 78 82 83 80 77 78 71 66 63 63 65 65 66 71 78 80
17 17 16 15 14 14 14 14 15 15 14 13 11 13 13 10 17 26 27 26 29 33 33 38 46 49 56 62 67 67 61 58 55 48 46 47 48 48 48 50 50 47 46 48 49 47 46 45 45 45 47 46 45 46 46 50 53 52 53 55 56 57 57 59 64 64 64 65 63 61 61 63 64 64 63 64 63 61 59 57 59 67 74 80 81 78 75 73 71 68 67 69 71 71 73 79 80
17 17 16 14 14 14 13 13 14 14 14 14 11 13 14 14 22 26 24 24 26 33 37 40 50 56 61 68 75 74 64 61 58 53 52 50 50 51 52 53 52 49 48 47 45 46 46 45 46 47 48 47 47 46 46 50 53 53 54 56 55 56 57 59 62 63 65 66 64 62 63 63 63 64 65 64 65 62 60 60 57 59 65 69 76 81 80 78 77 74 72 72 73 73 75 78 77
17 16 16 14 13 14 14 12 14 14 13 14 11 14 20 21 24 23 20 22 24 33 39 44 55 60 62 71 77 72 65 65 63 59 56 53 51 53 53 52 51 49 48 47 45 46 46 45 47 48 48 48 47 47 46 50 55 56 56 55 53 53 55 56 56 60 65 66 64 62 61 62 62 63 62 61 61 60 60 61 58 57 61 60 63 74 81 83 83 81 78 74 72 74 77 78 77
19 16 14 14 12 14 16 14 14 14 13 14 11 18 27 24 20 20 19 23 26 29 38 50 60 62 65 72 73 68 64 63 63 61 58 56 53 53 53 51 50 47 46 47 47 48 48 47 48 50 50 49 48 48 47 49 55 57 57 55 54 54 55 54 52 55 60 61 62 64 64 64 64 62 60 56 53 54 58 61 60 58 60 59 57 61 70 78 81 82 82 78 76 76 79 79 78
20 16 14 14 12 14 18 18 16 14 14 13 11 19 30 29 23 21 20 25 28 29 39 51 57 62 70 74 71 67 63 59 60 61 58 56 53 51 51 48 47 45 45 47 47 47 48 48 50 50 50 51 51 50 48 49 52 55 58 59 60 60 59 56 52 52 55 57 60 66 69 65 64 62 58 54 49 49 53 58 61 59 59 60 59 57 60 67 71 75 79 81 81 80 81 80 77
18 16 13 12 12 14 19 21 18 15 15 14 13 17 27 31 28 24 24 26 29 37 48 50 51 60 69 72 70 66 62 60 60 60 58 55 50 45 44 43 43 44 45 45 44 45 46 47 49 50 51 52 52 52 50 49 51 53 57 61 63 63 62 58 54 52 52 55 58 61 62 61 61 55 51 50 47 46 47 49 53 57 58 58 59 59 58 59 64 71 76 78 81 81 80 78 78
19 18 13 12 15 16 18 23 22 17 17 17 17 22 29 33 31 28 27 30 39 49 55 53 53 60 65 67 68 64 61 62 62 60 57 52 46 40 39 39 39 40 40 41 42 44 45 47 48 50 51 49 48 48 48 48 50 53 57 59 58 58 59 58 55 53 53 53 56 58 58 64 65 54 48 49 48 48 47 46 46 48 50 53 56 60 61 59 60 68 75 77 81 82 79 78 80
22 23 18 16 19 18 17 24 25 21 21 20 22 30 36 38 37 36 33 38 51 56 57 58 57 58 63 67 67 62 60 64 64 60 54 49 43 38 37 37 36 36 36 37 38 40 42 45 46 47 46 43 42 43 43 45 47 50 53 53 50 51 52 52 51 50 50 50 51 53 56 63 64 56 52 51 51 52 51 50 49 45 44 47 52 57 63 64 61 63 69 72 77 80 82 84 84
21 25 23 20 20 19 18 22 26 26 24 20 23 34 39 42 43 44 41 42 49 53 58 62 58 56 62 66 65 61 61 64 64 58 51 45 41 37 37 37 36 37 37 37 37 37 39 41 42 42 41 39 39 40 39 40 43 44 45 44 43 45 45 45 45 44 44 45 47 48 53 59 59 56 56 54 53 54 55 55 54 50 46 46 48 52 59 64 63 60 60 62 67 74 79 83 84
20 24 25 21 20 19 18 20 25 27 24 20 28 38 39 42 47 48 45 44 44 46 54 61 59 56 58 61 60 58 60 63 61 55 50 43 39 37 37 37 38 38 38 38 38 39 39 39 40 40 39 37 37 37 36 37 38 38 38 38 38 40 41 40 40 40 41 44 46 47 51 56 59 58 56 53 52 54 55 56 56 53 51 49 48 49 55 61 64 62 60 58 58 64 71 77 81
20 23 23 20 20 20 18 20 24 25 22 22 32 43 44 44 49 50 46 46 47 45 47 53 55 54 52 54 55 54 55 58 56 53 48 43 39 39 38 38 40 40 40 40 39 40 39 39 39 39 38 37 35 36 36 37 36 36 36 37 37 38 40 42 42 43 45 46 47 46 47 52 56 57 53 51 51 53 54 54 56 57 54 52 50 51 54 58 60 62 63 62 60 61 65 71 79
23 23 22 20 21 20 18 21 25 26 23 25 34 46 53 51 49 51 48 47 52 50 45 44 47 49 48 48 48 48 49 51 51 49 45 41 39 39 40 40 41 42 42 42 41 41 40 40 39 39 37 36 36 36 37 37 37 37 37 37 39 41 42 44 45 46 47 47 46 45 45 48 50 52 51 48 48 53 55 55 58 60 57 54 52 52 53 56 57 58 61 63 64 65 65 67 75
22 23 21 21 21 19 19 23 27 27 26 29 34 41 50 51 48 49 49 50 53 51 45 42 42 43 42 41 42 44 45 45 46 45 43 41 39 39 39 40 42 43 44 43 43 43 42 42 41 40 37 36 37 38 38 39 40 40 40 40 41 42 43 45 46 46 46 46 46 45 44 45 47 47 46 43 43 49 54 56 58 60 58 54 52 52 52 54 56 57 58 60 64 68 68 66 70
20 21 20 19 19 18 19 23 26 27 30 35 37 38 44 46 45 46 50 55 57 54 49 43 40 39 37 35 37 40 42 42 41 41 41 41 41 40 40 41 43 44 45 44 44 43 43 42 41 40 40 38 37 38 39 40 41 43 43 43 43 43 43 44 46 47 47 47 48 47 44 44 45 44 43 41 43 49 53 53 54 57 57 54 53 54 53 53 55 56 58 60 62 66 69 67 67
19 21 19 16 18 19 19 23 27 27 31 35 36 37 40 42 45 49 53 57 59 59 54 46 41 40 36 33 34 36 38 39 39 39 39 40 41 42 42 42 43 44 45 45 44 44 43 42 42 42 41 40 37 37 39 40 41 42 42 43 44 43 43 43 44 45 46 46 46 47 47 46 44 46 48 48 49 53 55 53 52 55 56 54 55 56 54 54 57 59 61 62 62 65 69 70 69
18 22 23 17 17 21 20 22 26 31 35 34 33 35 36 38 45 53 58 59 59 59 55 48 42 41 38 34 33 34 35 37 37 37 37 38 40 41 42 43 44 45 45 45 45 44 44 43 42 42 41 40 39 37 37 38 39 39 40 42 43 44 43 43 43 43 43 43 44 45 46 45 44 46 49 52 53 51 52 52 51 52 54 53 55 58 58 56 57 60 64 65 63 64 68 71 71
17 23 28 23 19 21 22 22 25 33 37 32 33 40 38 37 45 52 54 57 60 59 55 50 45 41 40 38 35 33 34 35 35 36 36 36 38 41 42 43 44 44 44 45 44 43 43 42 42 42 42 42 41 39 38 38 38 39 39 40 42 43 42 41 41 41 41 41 42 43 44 42 43 45 46 50 52 49 49 52 49 47 50 52 53 56 58 59 58 58 61 64 64 63 66 70 72
16 21 29 28 23 21 23 25 28 35 36 30 33 41 39 43 55 59 57 59 60 57 56 54 48 43 41 40 37 34 34 34 34 35 35 36 38 40 42 43 43 43 43 43 43 43 43 42 43 43 43 43 42 41 40 39 38 39 39 39 40 40 41 40 40 40 40 40 41 42 43 43 44 45 45 46 48 46 47 51 51 47 50 55 56 57 60 63 63 57 56 62 66 65 65 68 71
14 17 27 32 29 25 24 26 31 36 34 30 31 36 43 53 62 64 63 64 61 57 58 59 54 48 44 40 39 37 34 34 34 35 36 37 39 41 42 42 42 42 42 42 43 44 44 43 43 42 42 42 42 40 39 39 39 39 38 38 38 39 40 41 41 40 41 41 42 42 43 45 45 44 44 44 44 43 44 48 51 51 53 57 60 62 64 69 69 58 54 60 65 66 67 68 69
15 17 24 31 33 33 29 25 29 32 33 33 27 29 49 65 65 62 61 61 60 59 61 63 60 54 47 41 39 38 35 35 36 36 37 38 40 41 42 42 42 42 42 43 44 44 44 43 43 42 42 42 40 38 38 38 38 38 38 38 38 39 40 41 41 42 43 43 42 43 45 46 44 43 42 42 42 43 43 45 48 49 51 52 56 59 61 70 75 67 59 60 65 69 70 69 71
15 15 22 30 34 35 30 25 27 31 33 33 26 33 56 70 70 66 62 59 59 60 61 62 62 55 47 43 40 38 37 37 37 38 38 39 41 42 42 42 42 43 44 44 44 44 44 44 44 44 43 40 38 37 38 38 38 39 40 39 39 40 40 41 43 43 42 42 42 43 45 45 44 42 42 42 42 43 44 44 46 46 46 47 51 55 57 64 74 74 68 64 68 74 72 70 74
18 19 25 28 30 32 31 27 26 31 32 30 34 51 65 71 73 69 64 61 59 59 59 59 59 53 47 46 45 42 40 40 39 40 40 41 42 43 43 44 44 44 45 45 44 44 45 45 44 43 42 39 38 38 38 39 40 41 42 41 41 41 40 40 42 42 41 41 41 41 42 42 42 42 41 41 42 44 45 45 45 43 43 44 47 51 55 62 71 75 72 68 69 74 74 73 75
22 23 24 24 26 30 33 33 30 33 37 35 45 64 68 69 75 71 65 64 61 58 59 57 56 53 49 50 52 48 44 43 43 43 42 43 44 44 44 44 45 45 45 45 44 44 45 44 44 43 42 40 39 38 39 41 42 43 43 42 42 42 40 39 39 41 41 41 40 40 40 39 40 40 39 40 41 42 45 46 45 43 43 43 45 49 54 63 70 72 73 71 70 75 78 76 75
30 24 21 25 32 31 31 37 36 35 38 42 53 66 65 64 71 71 66 65 64 61 59 56 56 55 52 52 55 54 50 48 46 45 45 46 46 45 44 45 45 45 45 45 45 44 44 43 43 43 42 41 40 39 40 42 43 44 43 43 43 42 41 40 40 38 37 38 39 39 38 38 39 39 39 40 41 42 44 46 46 45 46 46 47 49 53 62 69 72 75 73 71 77 81 77 75
32 29 25 29 34 31 30 36 40 39 37 44 60 67 61 59 65 68 67 65 64 65 62 58 58 58 55 53 56 56 54 52 49 47 47 47 47 46 46 46 47 47 47 47 46 44 43 43 42 43 43 42 42 41 41 43 44 45 44 44 43 41 41 41 40 36 32 33 35 36 36 36 37 38 38 39 40 40 41 44 47 48 49 50 50 51 55 61 68 74 77 73 70 76 79 77 76
31 34 32 30 29 29 31 31 35 40 36 42 61 66 59 59 63 66 68 67 67 69 67 63 60 60 58 56 57 57 55 53 50 49 49 48 48 48 48 49 48 48 49 47 45 44 43 43 42 42 43 42 42 42 42 43 43 43 42 42 42 42 42 41 40 38 35 32 31 32 33 34 35 36 38 38 38 39 39 42 46 49 51 53 55 59 62 65 69 75 76 72 71 74 77 78 79
32 34 32 31 26 27 31 29 29 36 36 40 56 66 64 65 65 65 68 70 70 71 68 62 58 58 59 59 58 56 55 53 51 50 50 49 49 50 50 50 50 49 48 47 46 45 45 44 44 43 42 42 42 42 41 41 41 41 41 42 43 43 42 41 40 40 40 37 34 32 32 33 35 36 37 37 37 38 39 39 43 49 53 55 59 63 67 73 78 80 78 74 72 73 75 78 80
28 28 27 28 26 25 30 30 27 30 32 33 46 64 71 71 71 72 70 69 71 71 67 61 57 57 59 60 59 56 55 54 52 51 51 51 52 52 51 50 50 48 47 46 46 46 45 45 44 43 42 43 43 41 41 41 41 41 42 43 44 43 43 42 42 42 42 40 38 37 35 34 34 34 36 39 39 39 39 38 40 45 50 53 58 61 65 73 82 85 83 79 75 74 76 77 79